GFSMW_500_spd_000.txt.gz
Wind_Speed
21 21 22 27 29 28 33 40 41 43 49 47 40 39 39 41 49 49 51 50 50 51 54 56 59 60 62 64 65 68 70 71 73 73 73 73 72 73 74 75 76 77 77
22 24 26 27 25 35 40 41 43 46 45 44 42 40 45 48 48 48 52 55 56 58 60 63 66 68 71 73 74 75 75 77 78 77 78 78 77 77 78 80 81 81 79
20 19 24 28 35 38 40 42 43 44 43 42 45 48 45 46 48 52 55 58 60 63 66 69 72 74 77 79 81 82 82 82 82 83 85 84 84 86 83 80 80 81 80
16 20 28 34 37 38 40 42 45 46 46 45 44 45 46 49 51 54 57 61 64 68 71 74 77 80 82 84 84 85 84 84 84 86 86 88 88 88 87 85 83 82 82
25 30 38 38 38 37 39 39 40 42 43 42 44 45 48 50 53 58 62 65 69 73 75 78 80 81 83 82 81 82 84 85 87 88 89 89 89 88 89 86 83 83 82
33 34 37 40 39 42 36 36 39 39 39 41 43 44 48 53 57 61 65 69 72 76 78 81 84 85 80 79 79 80 82 83 85 86 86 87 89 90 91 92 87 87 84
39 35 40 41 41 31 29 33 36 39 40 40 42 48 53 57 61 66 71 74 81 84 84 83 83 82 83 83 84 84 85 85 85 85 86 87 88 90 90 93 93 92 91
38 45 43 40 35 29 28 28 31 34 39 46 53 58 63 66 71 74 76 82 84 87 87 86 85 85 86 87 87 87 84 82 83 84 84 82 81 78 75 71 69 69 69
43 29 36 32 32 31 33 35 38 43 50 56 63 66 69 74 78 81 84 85 86 87 86 89 90 89 89 87 82 78 79 76 75 74 70 67 64 59 55 51 50 50 51
29 33 31 31 33 38 40 43 48 53 58 64 68 71 75 79 83 86 88 87 85 85 87 89 88 82 77 67 66 73 75 67 65 63 61 55 49 47 47 49 50 49 49
36 35 35 39 42 45 46 49 54 59 64 67 69 74 79 83 84 86 85 84 86 87 88 82 79 70 61 65 72 70 65 51 47 46 45 47 50 51 52 54 54 54 53
38 40 41 44 46 48 51 55 59 64 67 69 73 79 83 86 88 88 87 88 89 88 82 73 70 57 61 66 70 71 51 47 45 46 49 51 53 56 57 58 57 57 57
38 43 43 48 49 51 54 58 64 67 70 73 79 84 88 90 90 89 89 89 90 83 68 69 59 62 62 61 65 63 53 52 51 53 56 58 57 55 52 50 51 51 53
43 44 48 50 51 54 59 63 67 70 75 80 84 86 88 89 89 90 91 90 79 73 67 54 55 63 59 63 61 52 52 53 55 58 58 54 51 50 50 48 46 46 47
43 46 50 51 55 59 63 66 70 75 80 83 86 87 88 90 91 94 92 80 72 65 54 46 58 58 57 53 48 49 51 55 56 53 48 48 47 47 48 48 47 46 45
45 48 51 55 59 61 63 68 74 78 81 85 87 90 90 91 95 93 84 71 63 57 47 51 54 46 44 45 47 49 53 54 48 44 42 42 42 42 43 42 41 40 41
47 51 54 59 62 63 67 72 75 80 84 86 88 89 90 94 93 82 69 59 53 41 37 37 36 34 40 43 44 50 51 48 42 41 42 44 44 43 40 40 38 35 35
50 53 57 59 62 67 71 74 77 81 83 85 88 90 93 92 81 68 56 51 39 32 30 27 30 36 40 42 47 50 48 41 38 42 44 45 42 40 37 36 30 31 33
51 55 57 61 65 68 71 74 78 80 82 86 90 91 90 82 67 56 45 35 28 29 30 28 31 37 40 41 49 46 42 36 38 41 42 43 39 35 33 30 22 21 26
54 57 61 65 67 70 74 77 80 81 86 88 90 89 81 70 57 47 37 30 31 32 31 31 34 39 40 43 48 44 38 34 35 37 39 39 36 30 25 25 18 15 17
56 60 64 66 70 74 78 79 80 85 87 88 90 83 72 58 49 40 33 31 32 33 32 32 36 40 40 45 47 44 38 31 31 31 33 33 32 28 24 21 17 11 13
59 63 66 70 75 78 78 78 83 86 85 87 85 74 60 50 42 34 29 30 33 32 31 33 37 40 40 45 46 42 36 28 26 27 29 30 31 30 25 22 17 9 3
63 67 71 75 76 76 78 82 84 83 84 82 76 66 53 44 36 30 29 31 33 30 31 33 37 39 38 44 43 40 35 26 23 24 25 26 29 30 27 22 17 12 6
68 71 74 74 73 75 79 82 82 84 82 75 69 58 46 37 32 28 28 31 31 30 32 33 36 36 37 42 41 38 34 25 21 20 21 22 25 26 23 19 15 12 9
72 74 73 71 73 77 78 79 82 81 75 68 62 51 38 33 29 29 29 31 32 31 31 32 35 33 36 40 40 35 33 25 19 18 16 17 21 22 20 17 13 9 6
73 72 70 72 76 77 78 82 81 77 68 61 52 44 33 30 29 29 29 30 32 31 30 32 32 33 36 39 39 33 32 26 20 16 14 13 15 18 15 13 12 12 11

GFSMW_500_spd_003.txt.gz
Wind_Speed
16 17 16 20 21 21 27 32 36 39 41 44 44 44 37 45 36 47 45 48 48 46 47 50 54 58 60 61 62 65 66 67 69 71 71 71 73 74 76 76 76 76 77
19 19 18 20 23 27 29 33 39 43 45 44 45 42 42 42 47 50 50 50 51 53 56 59 62 65 67 69 72 75 75 75 77 77 77 78 76 77 79 81 81 81 81
19 18 19 22 29 32 35 38 38 41 45 45 44 45 47 46 47 49 50 52 55 59 62 65 69 72 75 76 79 81 81 81 81 81 81 80 80 81 78 81 84 85 85
19 21 30 32 35 37 40 42 43 47 48 46 44 45 44 45 47 49 53 58 62 65 69 72 75 77 79 80 81 83 85 84 84 83 82 84 87 88 91 89 84 86 89
24 33 36 37 38 38 42 45 47 43 40 39 40 41 43 44 49 55 59 62 65 68 71 75 78 80 83 85 85 85 84 85 85 86 87 88 90 94 95 93 91 90 91
31 32 34 39 39 43 44 44 41 40 38 39 39 40 44 48 52 56 60 62 66 70 78 82 84 87 88 88 88 89 89 89 89 88 88 88 88 89 91 93 93 94 94
33 30 33 45 46 43 36 35 32 32 34 37 39 43 48 52 57 60 64 69 76 83 85 86 88 89 89 89 90 90 91 92 88 84 73 71 73 79 80 82 82 84 83
31 37 44 41 35 34 29 29 33 37 40 44 47 51 57 62 65 69 73 78 81 85 88 90 92 93 94 95 95 95 91 84 79 74 66 72 77 75 64 62 64 62 60
30 34 31 34 35 30 32 37 40 42 45 49 54 58 62 64 68 72 77 82 86 90 92 95 95 96 95 96 92 84 77 73 71 63 67 70 58 51 49 48 49 49 46
29 31 35 38 38 39 43 46 49 51 53 56 60 63 66 70 75 79 83 86 89 93 94 94 94 95 93 84 78 73 68 66 64 66 70 76 60 56 54 52 51 51 51
33 37 41 43 45 47 50 53 54 56 58 61 64 66 70 75 80 84 86 89 92 94 93 95 95 90 80 71 68 69 62 60 63 70 69 54 55 55 56 57 57 58 58
34 38 43 47 46 51 52 54 56 59 62 65 66 69 75 79 83 87 89 91 93 94 95 97 88 75 69 64 59 59 57 57 66 62 54 54 54 56 59 58 57 56 56
35 39 43 46 48 50 53 55 59 62 64 66 69 73 77 80 85 88 90 93 95 96 99 89 74 65 61 54 52 58 61 66 56 53 52 54 56 54 49 48 48 50 51
37 40 42 45 48 51 54 58 61 63 64 69 72 76 80 83 88 90 93 96 97 101 91 71 60 58 51 45 52 57 48 48 49 51 54 52 47 42 41 44 46 47 45
41 44 46 49 51 54 57 59 61 63 69 72 76 79 83 87 89 91 95 96 98 89 69 56 51 45 40 41 33 41 45 45 50 50 51 45 43 46 50 50 49 48 47
45 47 49 52 53 54 57 60 63 68 71 75 80 84 87 88 90 94 96 98 88 69 52 44 38 31 28 33 38 43 43 48 50 50 46 43 45 48 49 49 48 46 44
48 49 51 52 53 55 58 62 67 70 73 79 83 84 86 89 95 95 95 85 67 51 41 36 33 33 32 35 40 45 43 51 49 48 44 42 44 45 47 46 44 41 39
50 52 53 54 54 56 61 65 68 72 77 82 83 84 88 93 95 94 85 68 52 44 38 35 35 34 34 37 42 45 44 52 47 45 40 39 40 43 44 42 38 35 36
52 56 55 53 55 59 63 67 71 76 80 81 83 88 93 95 93 86 72 55 44 38 34 35 36 35 35 38 43 43 44 50 44 42 37 36 38 41 44 39 34 30 29
56 56 54 56 59 62 66 71 75 78 79 82 87 91 94 91 87 75 59 47 40 34 32 34 35 35 37 40 44 43 45 46 41 37 34 34 35 39 40 36 32 27 21
58 56 57 59 62 67 71 74 77 78 80 84 88 93 91 87 76 64 51 41 35 31 32 34 35 35 36 40 44 43 46 44 38 32 29 30 32 36 38 36 32 25 18
59 58 60 63 67 70 74 76 77 79 81 86 91 89 86 77 67 55 42 36 31 30 31 34 35 36 37 40 43 43 46 42 36 29 26 26 28 32 34 34 31 25 18
60 61 64 67 70 74 77 76 77 80 84 89 88 84 79 68 59 47 36 33 31 31 32 34 36 37 38 41 40 42 44 42 35 28 24 23 24 27 28 29 28 23 17
61 64 66 68 73 76 76 76 79 83 88 86 82 78 68 60 51 39 34 33 32 32 32 34 36 36 38 39 38 40 42 41 33 30 22 21 20 22 24 22 23 21 17
62 65 68 72 75 75 75 77 82 87 85 81 77 67 61 51 41 34 33 32 31 30 31 34 34 35 37 36 37 39 40 39 30 28 21 20 18 18 19 18 17 17 16
65 69 73 75 74 73 74 81 87 85 81 76 67 59 52 42 35 32 31 29 28 29 30 31 31 34 34 35 37 38 38 36 29 26 22 18 17 15 15 16 13 11 12

GFSMW_500_spd_006.txt.gz
Wind_Speed
12 14 17 20 21 19 22 26 30 30 36 43 51 50 48 42 39 41 47 53 52 48 48 50 54 56 58 60 63 66 68 70 72 74 75 75 77 76 76 75 77 78 78
15 17 20 18 19 24 28 29 34 39 43 47 50 49 48 48 49 47 45 45 46 47 51 55 58 61 63 66 70 73 76 78 80 81 81 82 80 78 79 80 80 79 80
17 17 18 20 29 33 37 37 39 41 43 47 46 41 40 41 42 42 43 43 48 53 57 61 63 65 68 71 75 77 80 83 84 84 85 87 90 91 89 88 86 85 82
19 22 21 26 30 35 34 39 40 45 46 45 43 42 41 41 41 42 46 50 54 59 61 62 64 68 74 76 79 81 86 90 93 93 93 95 95 93 94 93 90 90 91
23 25 32 35 36 32 38 40 49 48 45 45 44 42 42 44 47 49 53 56 57 58 61 66 71 76 81 83 85 90 94 96 95 94 93 93 93 94 96 95 92 90 90
26 26 33 39 39 40 43 47 39 40 41 38 39 42 44 47 48 52 56 59 61 65 70 75 82 86 87 90 92 95 96 96 95 94 93 90 86 83 81 80 77 73 71
28 24 29 37 39 42 42 37 41 38 39 41 45 47 49 52 55 58 61 63 66 72 77 81 85 86 89 93 97 97 100 101 100 92 86 81 72 67 67 65 65 68 71
21 22 28 32 36 38 39 41 39 41 46 49 51 51 51 53 57 60 63 67 72 77 80 84 89 92 95 99 100 100 98 94 86 81 73 66 67 69 61 63 66 72 60
20 23 27 32 36 35 36 39 42 41 44 47 49 51 55 58 60 63 67 72 76 80 84 90 94 98 102 101 102 101 97 79 73 68 63 64 61 57 61 65 57 56 51
22 25 27 29 32 35 39 42 47 50 53 54 55 58 60 62 64 69 73 76 82 87 91 94 97 99 102 102 99 84 74 67 63 61 54 54 58 58 55 55 56 57 58
26 30 32 35 37 40 44 47 51 54 57 58 59 61 64 66 70 74 76 82 86 89 93 94 97 100 99 91 76 65 60 58 51 49 53 55 52 50 53 54 56 55 55
34 36 39 42 43 46 49 51 54 56 59 60 62 64 67 70 74 76 81 85 87 90 93 98 99 99 88 72 60 55 45 40 40 40 42 47 47 51 52 53 50 45 45
37 40 43 45 46 48 51 53 57 58 61 62 63 66 69 72 75 79 83 86 90 93 100 101 98 86 68 53 46 36 30 32 39 43 41 46 49 47 47 43 42 44 48
39 42 45 47 49 51 53 55 59 60 61 62 65 68 72 74 77 82 85 88 92 99 100 97 83 65 49 38 33 33 33 36 41 45 44 51 47 49 44 41 45 48 50
42 45 47 49 51 52 55 59 58 59 60 63 67 71 74 77 80 83 87 91 98 98 95 82 65 50 40 34 34 35 37 40 44 47 48 52 49 48 41 42 44 46 49
45 48 51 53 53 55 57 58 58 59 62 65 69 73 76 79 82 86 89 98 99 95 84 67 52 41 35 33 35 37 39 42 47 47 50 50 48 42 39 41 45 48 49
47 50 55 56 55 56 59 58 58 60 63 69 72 75 78 81 86 90 97 98 93 84 70 54 43 37 33 35 37 38 40 44 49 47 51 47 45 37 37 40 45 48 46
50 52 56 55 55 58 59 58 60 63 68 71 75 78 81 84 88 95 97 93 83 70 57 44 38 34 33 36 36 38 41 45 48 47 51 46 40 35 37 40 44 45 42
51 53 53 54 56 59 58 59 63 67 70 74 78 81 83 85 94 94 90 84 71 59 45 37 33 32 34 35 35 38 41 44 44 45 47 44 35 34 35 40 41 40 38
52 53 54 54 58 60 60 63 66 69 73 78 79 80 83 92 93 89 84 72 60 49 38 34 32 32 33 34 36 38 41 42 42 45 42 40 31 31 33 38 39 37 34
55 55 55 57 59 61 62 64 68 73 77 78 78 82 91 93 87 82 71 61 52 41 36 33 33 33 33 35 37 39 42 39 42 42 36 35 28 27 30 35 36 35 32
56 56 58 59 61 63 64 67 72 78 78 77 80 90 92 88 80 70 61 52 44 36 34 34 33 32 33 34 36 39 39 39 41 39 33 30 24 24 27 31 32 32 29
58 58 60 61 63 66 68 72 76 79 76 79 89 90 88 80 68 61 53 44 38 35 34 33 31 31 33 34 36 37 38 40 40 38 31 28 21 21 24 27 27 28 26
59 59 60 62 66 70 72 75 79 74 80 87 88 88 79 68 61 53 45 39 36 33 31 30 31 32 32 33 35 36 37 39 38 37 29 26 21 19 20 22 22 23 23
58 59 62 64 69 71 74 78 73 80 84 85 85 77 67 62 55 45 38 35 32 30 30 31 31 31 31 33 34 35 36 36 36 35 28 25 24 18 16 17 18 18 19
59 62 65 68 71 73 75 71 79 81 82 83 74 66 62 58 48 39 34 33 33 33 30 29 28 28 31 33 33 34 35 35 34 32 26 23 24 18 15 14 16 15 14

GFSMW_500_spd_009.txt.gz
Wind_Speed
14 15 15 18 19 18 19 23 25 32 37 38 41 44 45 49 52 49 43 40 41 43 44 44 46 49 52 56 57 59 62 65 68 71 72 72 71 74 77 79 81 81 82
13 16 18 17 19 18 23 29 34 36 39 43 45 49 51 49 47 44 42 42 42 42 44 49 53 57 60 59 60 63 65 69 71 74 76 78 80 81 86 88 89 89 88
16 15 18 20 22 24 29 34 38 33 36 41 46 49 46 44 41 41 42 45 48 50 53 57 60 62 60 61 64 68 70 75 78 82 86 89 92 97 97 96 97 97 95
12 15 18 22 22 32 33 37 40 40 45 49 45 44 46 44 45 47 49 51 53 55 58 60 60 61 64 69 72 74 79 85 88 92 95 102 107 107 107 103 100 98 97
17 21 22 24 25 29 35 39 42 42 42 41 45 43 42 43 46 48 51 53 55 57 60 61 63 68 72 75 80 84 88 91 95 98 102 104 103 101 99 95 89 84 82
19 22 24 24 26 30 34 33 35 38 41 43 43 44 46 50 53 55 55 56 58 60 62 66 70 74 77 81 85 89 93 97 100 104 104 101 95 90 83 81 74 66 58
17 19 22 23 24 28 30 33 36 40 42 44 46 49 51 52 53 56 57 59 61 64 68 72 75 79 83 87 92 95 98 102 102 101 95 86 77 71 68 66 61 55 49
13 15 18 22 25 28 31 33 36 40 43 46 49 51 53 55 56 58 60 62 65 69 72 75 78 83 86 90 95 101 104 104 101 89 77 69 62 57 54 51 51 52 51
13 16 20 24 27 30 33 36 39 42 46 49 52 55 58 58 59 61 62 65 68 71 74 79 83 87 90 95 102 104 102 92 81 70 62 55 46 39 39 41 44 46 44
15 19 22 26 28 31 33 37 41 45 47 50 55 57 58 61 61 61 64 67 71 74 79 82 85 89 95 101 104 99 88 75 62 53 44 32 35 40 42 43 47 52 51
20 24 27 30 33 36 40 45 48 51 53 53 55 58 60 60 60 62 66 70 74 78 81 86 89 94 100 103 98 83 67 53 42 35 34 35 38 40 41 48 53 50 53
25 28 32 35 38 41 45 49 50 52 54 54 59 62 61 61 62 65 69 73 77 82 86 89 93 99 100 94 78 61 46 37 35 35 36 38 41 44 44 52 48 49 48
32 34 36 38 41 44 48 50 52 54 54 57 61 62 61 62 65 70 72 77 81 84 88 92 99 99 92 75 60 45 37 36 36 36 38 41 44 47 47 49 47 45 42
36 38 39 41 43 47 50 52 53 54 56 59 62 62 62 64 69 71 75 80 83 85 91 99 98 89 73 59 46 38 33 35 37 38 41 43 48 49 49 48 47 40 41
41 42 42 44 47 50 52 52 55 56 58 61 61 61 63 67 70 74 78 81 85 91 98 97 88 73 60 47 39 34 33 35 37 39 41 45 50 49 51 48 41 39 43
45 47 47 48 52 54 54 55 56 57 59 61 60 62 65 69 73 76 79 83 91 97 96 86 72 61 47 38 34 31 33 35 36 39 43 47 47 47 47 44 38 40 44
49 50 51 52 55 55 56 57 58 59 61 60 62 65 68 73 76 79 82 89 95 95 83 71 61 49 39 35 33 33 35 35 36 39 42 44 45 47 44 37 36 39 44
52 53 53 54 56 57 58 58 58 60 60 61 64 68 72 77 77 80 87 94 93 80 71 62 51 40 35 33 32 32 33 35 38 40 42 41 43 45 40 32 34 38 41
53 53 53 55 56 58 58 58 59 60 61 64 69 72 77 77 79 85 91 90 79 71 64 53 43 36 33 33 32 33 34 35 37 39 40 41 42 40 33 29 31 35 39
53 53 54 56 57 58 58 58 58 61 64 69 73 75 78 79 85 90 88 79 72 66 55 45 38 34 33 32 30 31 32 34 36 38 39 40 39 35 28 26 29 32 35
52 53 55 56 58 58 58 57 61 64 66 72 75 77 78 84 89 86 79 72 67 58 47 40 35 32 29 28 30 31 32 34 35 36 37 37 34 31 25 24 27 30 32
52 54 55 58 58 57 57 60 64 67 71 73 77 77 82 86 86 77 72 66 61 48 40 36 32 28 28 29 29 29 32 34 34 36 34 35 30 28 22 21 25 28 29
57 57 58 59 59 58 60 63 66 70 73 74 76 81 84 85 77 71 67 61 51 41 35 33 32 31 29 27 27 30 32 33 34 34 33 32 26 25 20 19 22 24 25
57 58 60 60 59 61 63 64 67 70 73 75 80 82 83 78 69 68 62 53 43 36 33 33 32 28 25 25 28 29 30 32 33 33 32 29 24 21 18 17 18 20 22
54 58 62 59 61 65 68 66 70 73 75 78 80 82 79 70 65 63 55 45 38 34 33 32 28 24 24 26 27 27 29 30 32 31 29 27 23 22 21 15 15 17 18
60 59 57 62 66 67 69 68 73 76 76 78 81 78 72 64 62 56 48 40 36 34 31 27 23 22 24 25 25 25 28 29 30 29 27 24 21 20 22 17 14 14 15

GFSMW_500_spd_012.txt.gz
Wind_Speed
14 14 14 17 19 22 23 22 21 27 30 36 38 39 42 45 50 47 44 42 40 40 42 44 47 50 52 54 57 59 61 60 61 61 62 64 66 69 71 74 75 79 82
12 13 16 18 19 20 19 21 25 30 35 39 41 43 45 48 46 47 46 44 45 48 52 54 56 57 58 60 59 57 58 62 66 66 69 72 73 77 82 84 86 89 91
13 13 16 18 19 23 23 26 30 34 35 40 40 42 45 45 46 48 48 48 50 52 55 56 56 56 56 58 60 63 66 69 72 75 78 80 84 88 91 94 98 100 101
14 15 18 19 21 23 24 27 30 30 32 34 34 36 40 44 48 50 51 54 54 55 56 57 58 59 60 63 67 69 72 74 79 83 86 90 94 98 101 103 105 107 107
15 17 19 21 20 18 18 19 22 25 29 31 35 39 42 45 48 51 54 56 57 58 59 58 58 61 64 67 70 74 78 82 85 88 92 97 100 102 107 110 105 95 87
17 17 17 14 13 15 18 20 23 27 31 35 39 43 45 49 52 54 57 58 58 59 60 60 62 65 68 72 76 80 84 88 92 95 99 103 105 106 97 85 77 69 62
14 13 12 13 15 18 21 24 27 31 36 40 43 46 49 52 52 54 57 58 59 60 61 63 66 69 73 77 82 86 90 92 96 101 106 107 100 85 74 65 58 53 46
10 13 15 16 19 23 25 27 30 34 37 41 44 47 50 52 53 56 58 61 62 62 62 65 69 74 77 81 86 89 93 98 103 107 102 85 72 61 53 46 42 38 35
13 15 17 21 24 27 29 31 34 37 40 43 46 48 54 54 57 58 62 63 62 62 64 68 73 76 81 85 88 94 100 104 102 89 75 63 51 43 41 42 41 42 37
17 19 22 25 28 31 33 34 38 41 43 46 49 53 56 58 58 61 63 61 62 64 68 72 76 80 84 89 95 101 104 93 78 67 56 45 40 38 39 40 41 43 43
21 24 27 30 32 35 37 38 41 45 48 51 53 56 59 59 60 62 62 62 64 68 71 76 79 84 87 93 102 104 86 73 62 53 45 41 38 38 39 42 45 45 47
27 30 33 36 39 41 42 43 46 48 52 55 57 59 60 60 61 62 62 65 68 72 76 79 84 87 94 101 94 79 70 60 49 43 41 38 39 40 43 46 49 49 48
33 36 39 42 45 47 48 50 51 53 55 57 59 61 61 61 63 63 65 68 72 77 80 84 87 94 101 88 75 68 59 48 41 39 38 40 40 41 44 46 49 48 50
38 41 44 47 50 51 52 54 55 55 57 59 61 62 62 63 64 64 67 72 76 80 84 87 92 100 85 74 68 59 48 41 38 35 37 38 38 40 44 48 47 48 47
43 45 48 50 53 54 55 56 57 58 59 60 62 63 62 63 63 66 71 76 79 84 86 90 98 86 75 68 60 48 41 37 35 36 37 38 39 42 46 46 46 47 43
47 49 51 53 55 56 57 58 57 58 59 61 62 62 61 62 65 68 74 79 83 87 90 96 87 77 69 61 49 42 38 36 35 35 36 38 41 43 43 45 45 42 37
51 51 53 55 57 58 58 56 57 58 60 62 61 60 61 65 67 72 78 80 87 88 93 86 78 71 62 51 42 38 36 36 36 36 37 39 41 41 41 41 41 37 33
52 52 54 56 57 56 54 56 58 59 61 60 58 60 64 67 72 76 78 84 87 92 88 78 72 64 53 44 39 36 34 32 33 35 37 38 39 40 40 40 35 31 31
53 54 54 54 53 54 55 56 61 60 61 59 60 63 66 68 72 75 80 86 90 90 80 73 66 55 45 40 37 33 31 31 33 34 35 37 38 39 38 35 31 28 29
53 53 51 51 52 54 56 56 57 60 60 61 63 67 68 70 75 78 83 88 90 81 74 69 57 46 40 36 32 32 31 31 31 33 34 35 37 37 36 31 27 25 27
47 47 49 52 55 56 58 54 58 61 61 63 67 70 70 74 78 83 86 86 83 75 68 61 49 40 36 35 33 32 30 29 30 31 33 35 34 34 32 29 24 22 25
46 49 54 56 55 56 54 59 63 64 64 67 71 72 72 75 82 85 84 82 76 68 61 51 43 37 36 35 32 30 29 29 29 30 32 32 31 30 28 27 21 20 24
52 55 55 55 56 57 58 58 65 63 65 70 73 73 73 78 85 84 83 77 67 61 54 44 38 36 34 30 28 28 29 29 28 29 31 29 28 26 25 24 20 19 22
57 55 54 56 60 62 59 58 63 69 70 72 73 75 76 82 83 85 78 68 60 54 47 39 36 34 30 25 26 27 28 27 28 29 29 27 26 24 22 22 19 17 19
53 54 56 59 59 59 66 67 75 73 73 71 73 75 73 76 79 77 69 60 55 49 41 36 33 31 26 24 26 28 28 26 26 28 28 25 24 23 22 21 21 17 16
54 57 59 58 61 66 68 70 72 69 68 70 72 72 72 74 71 67 60 54 51 44 38 33 30 27 24 26 27 27 26 25 25 26 26 24 23 22 21 21 20 19 16

GFSMW_500_spd_015.txt.gz
Wind_Speed
11 12 12 14 17 20 22 22 24 22 25 29 33 36 38 37 35 40 44 45 46 46 47 49 52 53 53 56 56 55 55 56 56 59 59 58 60 63 67 70 72 74 77
13 13 14 17 19 21 25 24 26 28 31 33 35 33 32 33 36 38 41 43 46 49 51 51 53 55 56 57 57 58 56 56 58 61 64 63 64 68 73 76 80 83 86
13 16 18 19 20 24 25 26 26 28 30 29 28 28 30 34 37 39 42 45 48 51 53 56 57 57 57 57 57 58 58 59 61 65 68 72 76 78 80 83 86 89 93
19 21 22 21 25 27 27 23 21 21 22 24 27 30 34 38 41 45 48 51 52 53 55 58 58 59 58 58 58 60 61 65 68 72 76 80 83 86 90 94 96 100 104
24 24 22 24 27 23 17 17 18 21 24 27 30 33 36 40 43 47 51 53 55 56 58 61 61 61 60 61 61 63 68 72 75 80 82 86 90 94 98 101 105 104 99
25 25 26 25 20 16 17 19 21 23 27 30 33 36 40 44 47 50 50 54 57 58 60 62 63 63 63 63 66 70 73 77 82 84 88 94 98 103 103 98 89 80 68
26 26 23 18 17 16 19 23 25 28 31 35 37 41 45 49 50 51 56 59 60 61 62 64 65 65 66 69 72 76 80 83 86 91 98 102 101 95 86 79 70 59 46
21 18 18 18 19 22 25 27 30 33 36 39 42 45 48 51 53 56 60 61 63 63 63 65 66 66 69 73 76 81 85 88 92 100 101 94 86 79 71 62 52 44 40
16 17 19 22 24 28 31 33 36 39 41 44 47 49 51 53 54 57 60 63 64 64 65 66 67 68 72 76 81 86 88 93 102 95 87 81 74 66 56 50 45 43 40
21 22 25 28 31 34 37 39 42 44 47 50 53 55 56 57 58 60 62 64 65 65 66 66 67 72 76 81 85 87 93 103 93 83 77 70 60 52 47 44 43 44 44
25 27 30 33 36 39 42 45 48 50 53 55 58 60 60 60 59 61 63 65 64 65 65 67 71 76 81 84 86 92 101 92 83 74 67 56 50 46 43 42 43 44 46
29 32 34 37 41 44 47 49 52 54 56 58 60 60 61 61 62 63 64 64 65 64 67 69 74 78 82 85 90 96 99 82 73 64 54 47 43 41 41 43 44 45 47
34 37 39 42 45 48 50 52 55 56 58 60 61 62 61 61 62 63 64 64 64 66 69 72 77 81 86 91 99 97 84 73 64 52 46 41 40 39 41 42 43 46 49
40 42 44 46 49 51 54 55 56 58 60 61 61 61 59 61 63 65 64 63 66 69 72 75 79 84 89 95 100 87 74 65 53 46 42 39 38 38 40 43 46 47 46
45 48 50 51 53 55 56 57 57 59 60 60 59 59 60 61 64 64 64 66 69 72 75 78 83 88 92 95 93 79 67 55 47 43 40 39 38 39 42 44 45 45 44
50 51 52 54 55 55 55 56 58 58 56 56 58 59 60 61 63 63 65 69 72 75 77 80 89 93 96 95 84 70 59 49 44 41 39 37 38 39 41 41 42 43 43
53 53 53 53 54 55 55 55 54 53 54 57 58 59 59 63 63 64 67 72 76 78 78 81 89 93 98 86 74 61 50 44 41 37 35 37 39 39 41 41 42 41 41
53 53 53 53 53 53 52 50 53 55 58 60 59 56 59 63 66 67 70 76 79 79 81 83 91 90 88 74 64 53 44 41 39 37 37 37 39 39 40 41 39 40 36
54 53 52 51 49 48 50 52 57 59 58 59 59 63 71 73 75 71 73 78 80 78 82 85 92 80 75 64 55 47 42 40 38 37 36 36 39 38 38 38 37 35 32
51 49 49 47 47 49 53 57 57 55 56 59 58 65 71 79 81 80 80 79 79 81 80 85 81 72 66 57 49 44 41 38 36 35 36 34 35 37 37 35 34 31 29
46 44 45 47 51 54 56 54 55 60 59 63 70 67 75 82 85 85 76 77 74 76 85 81 74 63 58 51 44 42 39 35 33 34 34 34 34 35 34 32 31 29 25
44 44 48 51 53 55 52 54 57 58 59 71 70 75 79 81 81 71 76 77 80 77 77 71 62 57 52 47 42 39 35 33 32 33 31 31 33 32 30 30 29 28 23
48 50 52 51 52 53 54 56 58 61 67 72 82 85 88 74 68 75 75 76 74 70 65 61 56 52 49 42 38 36 32 31 32 31 30 30 31 30 27 26 27 26 23
50 50 52 54 56 58 59 60 62 62 62 76 87 81 70 71 73 72 70 69 70 63 58 54 50 47 44 39 36 31 31 32 32 30 29 29 30 27 25 25 25 23 23
51 53 55 57 59 59 62 61 63 67 77 81 78 75 73 74 71 68 67 64 58 55 54 50 46 41 39 36 34 32 31 30 29 29 28 28 29 27 24 23 22 23 22
56 58 60 60 62 60 62 59 60 71 77 75 76 77 74 71 69 66 60 55 53 53 51 48 44 39 36 34 32 32 32 32 31 29 27 26 27 26 24 23 23 22 21

GFSMW_500_spd_021.txt.gz
Wind_Speed
2 3 4 8 4 6 15 15 16 17 22 21 21 19 18 18 21 24 28 33 36 39 41 42 43 46 48 49 50 51 53 55 55 55 54 49 47 49 52 53 56 60 65
4 6 9 11 11 13 16 14 17 22 23 18 16 17 19 22 25 29 34 38 40 43 45 46 48 51 53 54 55 55 57 58 57 57 55 49 48 51 55 58 62 66 71
4 7 11 18 19 20 21 19 23 21 16 16 19 21 24 27 30 34 38 42 45 48 51 52 54 56 59 57 56 58 58 58 58 55 53 54 57 60 62 65 69 73 79
4 9 15 22 24 25 23 25 23 18 17 20 23 25 29 31 35 38 41 44 47 50 53 56 59 61 61 61 60 59 60 60 57 54 57 61 65 68 69 72 77 82 88
15 14 16 21 25 26 24 23 20 19 20 24 27 31 35 38 41 45 47 50 52 55 58 59 61 61 62 61 60 60 62 59 56 57 62 66 68 71 75 79 84 89 98
23 23 21 22 21 21 19 17 19 20 24 29 33 36 39 42 46 50 52 55 58 59 59 60 61 62 61 59 59 62 60 57 58 61 67 70 72 76 81 83 88 97 97
22 22 22 17 15 14 17 19 20 24 29 34 38 42 45 49 51 54 56 57 58 59 60 60 60 60 58 58 62 60 58 60 62 64 70 72 76 82 86 89 97 98 74
17 15 12 11 13 17 21 24 26 30 33 38 43 47 50 52 54 55 57 58 59 61 61 60 59 59 59 61 60 59 61 64 66 68 74 77 82 83 86 93 97 83 65
8 8 10 13 17 22 26 29 31 34 37 41 46 50 52 53 55 57 58 59 59 61 59 58 59 60 61 60 59 62 65 69 73 75 80 82 79 82 89 93 85 72 60
13 14 17 19 21 27 31 35 37 39 41 43 48 50 52 53 56 56 57 59 60 58 57 59 61 62 60 61 64 69 76 80 83 87 87 80 79 87 86 78 64 57 48
19 22 24 26 28 30 34 38 42 45 46 45 49 52 53 55 56 56 58 58 56 57 59 61 61 62 63 65 70 74 81 86 90 92 82 77 82 84 75 60 53 47 43
24 27 30 31 33 36 39 43 47 50 49 48 50 53 54 56 55 55 57 55 57 60 59 59 62 62 66 68 72 78 80 85 85 80 78 81 80 76 62 50 45 42 40
32 35 37 38 40 42 44 46 47 50 51 50 51 54 56 55 55 53 54 57 58 56 59 63 63 65 67 70 71 76 83 74 75 77 77 82 74 63 49 44 42 40 41
37 40 43 45 46 46 44 45 50 53 53 52 51 54 54 53 52 54 58 59 57 59 62 66 71 76 80 81 82 82 73 73 74 74 75 70 60 52 42 42 40 40 40
42 47 48 46 46 50 49 49 51 53 54 50 50 51 52 53 56 59 58 58 61 64 65 66 70 78 85 84 83 75 72 79 73 67 60 56 52 45 42 40 38 38 38
44 47 49 52 53 48 50 50 53 52 50 49 49 53 55 56 58 57 59 62 66 68 73 82 88 85 85 80 71 71 77 70 60 56 55 51 47 44 42 37 37 37 35
44 44 47 50 53 55 54 50 50 49 48 50 53 55 55 56 56 59 64 65 67 69 82 85 87 85 77 70 73 73 68 60 54 52 50 45 42 41 38 36 36 36 37
46 48 50 51 50 48 47 47 48 49 51 53 54 53 55 58 62 64 66 69 69 70 78 81 80 72 73 76 74 67 60 53 51 50 46 41 38 37 34 36 35 35 36
50 51 49 45 44 44 45 47 49 51 52 52 54 57 59 61 65 64 68 76 82 80 79 76 74 74 77 67 57 54 53 50 49 47 42 38 35 34 35 35 34 35 36
46 46 43 45 46 48 49 49 50 49 52 54 57 60 63 61 65 66 70 75 77 78 78 74 75 71 63 56 54 53 51 48 47 44 38 34 32 33 33 33 33 34 34
43 47 45 47 49 49 49 48 50 53 56 58 62 64 66 65 66 69 74 70 69 70 72 75 62 57 55 53 52 50 48 45 44 41 36 32 31 32 33 33 32 32 32
42 45 47 48 47 47 46 49 51 55 59 61 66 67 66 65 64 63 66 66 68 71 70 57 54 53 52 50 48 46 45 45 43 38 34 33 31 32 33 32 32 32 31
45 47 47 45 44 46 49 52 56 60 61 63 64 65 65 65 64 64 64 67 72 64 55 53 54 55 52 49 46 45 44 42 40 36 32 32 31 31 31 30 30 31 31
49 47 45 46 48 51 55 59 61 62 62 62 63 64 65 65 63 63 66 65 56 54 55 55 57 57 53 49 46 43 42 41 38 34 31 30 29 29 27 27 27 27 27
48 47 48 50 53 58 61 62 62 61 60 62 65 67 68 68 66 66 57 54 55 56 58 58 58 58 55 52 48 44 40 38 37 31 29 28 26 26 26 25 25 25 24
47 48 52 56 59 62 62 61 60 61 63 66 68 69 68 65 62 57 56 59 58 58 57 59 61 60 58 53 48 44 39 37 35 29 26 25 24 25 24 24 24 23 23

GFSMW_500_spd_024.txt.gz
Wind_Speed
2 6 6 5 5 7 10 13 11 14 15 17 13 10 10 12 14 18 22 26 29 32 37 39 42 44 47 50 52 52 53 53 52 52 51 53 54 51 48 49 52 55 59
4 3 6 6 5 9 9 8 10 16 16 12 10 12 15 17 21 25 29 32 36 39 42 45 48 50 53 54 56 57 56 56 54 53 53 54 50 46 47 51 55 59 61
1 3 2 4 6 10 13 6 13 12 11 11 12 16 19 23 27 30 33 37 39 42 46 49 52 54 55 56 58 58 57 54 53 53 55 53 48 49 52 54 58 61 65
3 8 8 11 12 11 12 11 15 10 10 14 17 21 25 29 32 35 38 41 44 47 49 52 54 57 58 59 59 58 55 54 54 56 54 52 54 57 58 63 67 70 75
2 6 8 11 14 15 14 12 9 12 14 17 22 26 30 34 37 40 43 46 48 50 52 55 58 58 59 59 58 56 55 56 57 54 53 55 57 60 64 67 71 77 80
8 8 8 10 11 14 15 11 14 16 19 22 27 32 36 39 42 45 48 51 52 55 57 59 59 59 60 59 57 57 58 59 57 56 56 58 62 66 69 69 72 76 77
8 11 9 8 8 9 12 12 16 20 25 28 32 37 41 45 48 51 53 56 57 59 60 60 58 61 60 57 60 61 60 59 60 61 63 66 69 74 75 77 77 76 71
8 5 4 4 8 13 15 17 20 25 29 33 38 42 45 48 51 53 55 57 59 59 60 58 62 61 59 60 62 61 62 63 62 66 68 70 74 78 83 78 76 74 76
4 4 6 8 13 18 21 22 25 30 34 38 42 45 49 51 52 53 55 56 57 59 61 59 59 59 62 62 60 63 66 66 68 71 77 77 77 83 79 75 77 80 77
10 9 10 12 17 23 26 29 32 35 39 42 45 46 48 51 53 54 56 57 57 59 58 56 58 62 62 62 64 65 66 69 71 76 79 82 87 77 71 76 75 72 73
14 14 14 16 21 27 32 35 38 41 42 41 42 44 48 50 53 54 55 55 55 54 55 59 62 62 63 65 67 67 70 74 80 82 83 83 71 72 76 70 67 68 68
17 18 19 22 28 31 34 37 40 40 41 39 41 45 49 53 53 52 51 51 51 56 59 61 62 63 66 68 70 72 76 82 83 83 76 72 76 80 70 64 64 64 63
21 24 28 31 32 33 35 33 35 41 42 43 45 48 52 53 52 50 48 52 57 59 59 60 63 68 69 71 75 77 78 82 81 74 69 76 75 67 61 62 63 60 55
24 29 32 34 35 38 40 44 45 44 40 42 48 53 52 51 50 51 53 55 57 58 62 65 67 70 73 77 80 79 83 82 73 70 75 69 63 59 61 62 60 53 48
27 32 35 36 40 44 47 48 44 40 41 48 49 51 50 51 52 53 54 56 59 63 66 69 72 76 77 82 81 79 75 71 71 72 64 60 58 58 59 57 51 48 43
33 36 40 43 46 48 50 41 44 47 49 51 51 50 50 51 52 53 56 59 62 67 68 73 74 78 82 80 74 71 70 73 71 61 59 58 58 57 55 50 45 42 39
39 41 42 44 47 49 50 47 48 49 50 50 50 50 50 51 54 57 61 66 68 66 70 74 78 81 76 71 70 70 72 65 58 56 57 57 54 52 49 44 40 40 39
41 43 45 47 49 48 47 48 50 49 50 50 49 48 51 55 58 64 67 70 69 67 72 74 78 76 72 70 72 65 58 54 54 55 55 52 51 48 43 39 37 37 37
44 46 48 49 48 47 48 49 47 49 49 47 47 51 56 58 65 57 70 80 73 75 73 75 77 69 71 69 58 55 54 53 52 51 50 48 47 44 39 36 36 36 36
46 48 50 49 47 48 47 48 48 48 46 48 52 55 50 58 69 61 60 77 75 73 74 75 70 70 66 57 54 54 55 54 52 49 47 46 45 40 37 35 36 35 33
48 48 46 48 49 49 51 50 48 46 49 52 55 57 58 61 62 62 64 69 72 72 71 66 67 58 54 55 55 54 55 54 52 50 46 44 42 37 35 35 34 32 30
45 45 47 47 49 51 50 47 46 47 51 55 58 58 59 60 60 62 66 69 71 69 65 61 52 55 55 55 55 55 55 54 50 49 45 43 39 35 34 32 31 29 28
46 47 48 50 51 51 48 47 48 52 55 57 59 59 58 60 62 65 68 71 70 65 59 56 55 56 57 54 55 57 58 56 49 46 43 41 38 32 31 29 28 28 28
48 50 52 53 52 49 48 50 54 57 59 60 59 59 60 63 67 70 72 71 66 61 58 57 58 59 56 56 58 59 59 56 48 43 41 39 36 31 29 27 27 26 26
50 52 53 51 49 49 52 56 58 60 63 61 60 62 65 69 72 73 71 68 63 60 59 58 61 60 57 60 62 63 61 55 47 41 38 38 35 29 28 25 24 24 24
54 53 51 50 51 54 57 60 62 64 61 61 64 68 70 72 73 72 69 66 63 60 60 61 60 60 62 62 64 65 61 53 46 40 36 36 33 29 27 25 23 23 23

GFSMW_500_spd_027.txt.gz
Wind_Speed
5 7 9 9 8 5 1 2 3 1 4 6 3 2 3 6 8 13 17 21 24 28 31 35 39 42 45 47 49 51 51 52 51 51 51 50 49 49 52 50 46 47 49
4 5 5 4 4 3 1 1 2 4 4 4 5 5 7 10 14 18 22 26 29 33 37 41 45 48 49 51 51 51 52 53 52 51 50 50 51 53 52 50 50 51 53
8 6 4 4 5 5 3 2 5 7 5 9 9 9 14 17 22 26 30 33 36 40 44 46 48 49 51 53 54 53 53 55 53 52 53 54 54 55 52 51 52 53 58
5 5 4 3 7 8 5 6 8 11 9 12 14 15 19 24 30 33 35 37 41 45 47 48 50 51 53 53 54 53 56 54 53 55 57 58 58 58 58 58 60 63 65
8 7 7 6 8 9 5 6 10 13 12 14 18 18 24 30 35 38 39 43 46 49 51 53 54 55 53 55 55 56 56 55 57 59 58 58 61 62 60 61 65 68 73
9 7 5 7 9 12 7 11 11 13 12 17 21 24 30 36 39 41 44 47 50 51 53 54 54 56 56 55 56 57 57 60 62 62 62 63 65 65 66 68 69 71 72
10 9 6 8 8 9 8 7 11 17 19 22 25 29 36 41 43 45 48 49 50 51 51 51 55 56 57 59 58 59 62 64 64 64 66 67 68 70 71 74 79 73 71
10 7 8 7 8 9 9 11 14 20 24 28 31 35 40 45 47 49 49 51 51 50 48 51 59 58 58 58 60 63 65 65 66 69 73 75 75 79 80 79 73 68 63
7 6 6 8 11 13 11 16 20 24 28 33 37 42 45 45 48 50 51 51 51 50 50 55 57 58 59 61 63 65 66 69 73 76 79 79 81 82 80 78 72 69 68
7 7 8 12 16 15 18 22 25 29 34 38 42 45 44 47 50 51 50 52 52 52 53 55 56 58 60 62 64 67 70 74 76 77 79 83 83 82 78 69 70 74 76
11 12 13 17 17 19 23 27 32 36 40 42 42 44 43 46 49 51 53 55 53 53 53 55 57 59 62 64 68 71 75 76 80 82 84 85 81 72 66 69 77 76 71
15 17 19 19 21 25 28 31 33 36 39 43 41 40 44 45 47 51 56 53 52 53 55 57 58 61 65 69 73 76 78 79 84 86 85 76 70 70 72 77 74 69 71
18 21 21 22 28 32 33 33 34 33 38 38 40 42 41 45 49 54 51 49 51 53 54 56 59 64 69 73 76 77 81 85 86 84 78 73 72 76 73 67 66 68 66
19 22 24 28 32 33 32 34 35 38 40 37 44 41 47 49 50 51 49 50 51 52 56 59 64 69 70 74 79 81 82 83 84 79 74 75 72 66 64 64 63 61 60
22 25 28 28 30 32 34 36 36 39 45 48 48 48 51 51 52 51 49 50 53 56 60 61 68 75 81 82 83 83 83 85 77 73 73 66 59 57 59 60 57 57 56
28 30 29 31 34 36 39 43 42 50 49 48 49 52 53 52 50 49 50 53 58 61 66 69 74 76 78 85 85 84 84 77 75 70 61 57 57 58 58 57 55 55 51
31 31 33 36 39 43 46 49 50 49 49 50 53 53 54 53 50 50 53 57 61 62 69 67 71 75 80 83 83 82 73 74 62 60 57 55 57 58 57 55 54 51 47
32 34 37 40 44 47 50 50 49 49 51 53 54 55 53 50 51 54 57 60 64 66 70 69 70 72 78 80 80 73 67 59 58 57 55 57 58 57 55 53 51 47 44
34 37 41 45 48 50 51 51 49 51 53 54 54 52 49 50 55 57 62 64 63 65 69 69 70 74 77 76 68 64 60 58 57 55 57 58 59 56 53 51 48 44 41
38 42 45 48 49 50 49 49 50 52 53 53 51 48 51 53 59 62 64 64 63 65 68 69 72 73 74 67 61 59 59 58 56 56 58 59 59 55 50 48 44 41 38
42 46 48 48 48 49 49 50 52 54 55 53 50 51 53 58 61 63 63 63 64 66 67 69 71 74 70 61 61 60 59 59 55 57 59 60 58 53 47 45 41 38 35
43 44 46 47 48 48 49 52 54 56 53 50 51 54 58 60 61 61 61 63 65 66 69 73 74 72 66 62 61 59 59 58 57 58 60 60 56 51 45 42 39 36 34
44 46 47 47 48 50 51 54 53 51 49 51 55 58 60 61 60 61 63 65 68 72 75 76 73 69 64 60 59 59 59 58 59 60 61 60 53 48 45 39 37 34 33
47 48 48 49 51 53 54 54 53 52 54 56 59 61 61 62 63 65 68 72 75 76 77 75 71 66 62 60 62 60 59 60 60 62 63 58 49 45 43 38 36 33 32
49 50 50 51 53 54 54 54 55 56 58 60 62 62 63 64 66 70 74 76 77 78 76 73 68 64 61 60 63 62 61 62 65 65 63 53 45 43 41 37 33 32 31
52 52 53 54 56 56 55 55 56 59 62 64 64 64 65 68 72 75 76 78 78 76 74 69 65 63 63 62 63 64 65 68 69 66 58 48 43 41 39 36 32 31 30

GFSMW_500_spd_030.txt.gz
Wind_Speed
5 6 9 9 11 11 8 7 8 5 4 7 5 5 6 5 6 8 12 16 20 24 28 32 35 39 42 44 46 48 50 51 51 51 50 50 47 46 47 50 51 51 51
7 7 8 7 6 5 4 6 9 4 5 4 5 6 6 9 11 13 17 21 26 29 32 35 38 42 46 48 48 48 49 49 49 51 51 50 49 52 54 54 53 54 56
10 11 10 9 7 4 5 6 9 8 7 9 8 11 13 16 18 18 22 26 31 34 37 40 44 46 46 46 46 48 49 48 51 52 52 52 53 55 55 56 58 61 62
10 9 9 8 9 7 7 8 11 9 10 12 11 13 16 19 21 21 28 33 36 40 43 44 45 47 47 48 45 48 52 54 53 53 54 57 58 59 60 62 65 67 69
13 10 9 8 10 11 11 12 16 14 11 13 13 14 18 22 24 27 36 39 42 45 47 45 48 46 45 42 41 58 58 56 55 57 59 59 62 64 67 69 71 74 75
16 16 16 16 17 16 13 17 24 7 7 12 16 17 22 25 28 32 39 43 46 47 46 47 47 48 43 45 52 58 57 57 59 60 62 65 69 72 75 77 79 80 81
19 19 19 20 21 16 12 13 13 14 12 16 19 24 28 30 34 38 44 46 46 47 46 45 48 51 50 51 54 55 57 59 61 63 67 72 75 79 81 82 83 86 83
16 19 22 22 19 13 9 9 15 14 16 20 24 27 33 37 40 45 43 42 46 48 48 50 52 51 51 52 55 57 59 61 64 68 72 76 80 82 86 86 88 82 80
16 15 15 12 11 10 10 14 17 17 19 23 29 34 38 42 40 39 43 48 47 47 51 54 53 53 52 54 56 58 62 65 69 72 74 76 79 81 82 84 87 83 74
15 14 13 12 12 12 14 18 18 22 26 30 34 39 42 40 40 45 42 44 46 53 54 56 54 52 53 56 59 62 66 72 74 74 75 80 82 83 86 88 81 75 78
18 16 16 16 18 17 20 23 25 28 31 36 39 40 37 37 42 39 41 51 53 55 58 57 56 55 55 58 62 66 69 73 77 81 83 87 87 88 86 80 80 78 68
20 20 19 20 22 23 26 29 29 31 35 38 40 40 38 40 45 50 49 53 55 57 58 57 55 54 57 62 66 68 75 76 78 82 85 85 87 85 80 80 71 65 62
21 21 22 23 25 28 30 31 33 34 37 38 39 39 44 49 51 50 53 55 55 56 55 54 53 55 59 65 67 70 72 77 82 81 84 86 84 78 73 68 60 60 64
19 21 24 26 28 31 31 32 33 34 38 40 41 47 47 50 50 52 54 52 54 55 55 55 57 59 58 67 72 75 77 79 78 81 83 83 78 67 65 61 59 62 64
21 24 25 27 30 32 32 32 33 35 37 41 42 45 48 50 52 55 54 56 56 56 54 57 59 62 64 67 74 79 78 77 78 81 82 78 68 66 61 59 61 62 64
26 27 29 30 31 30 31 33 37 41 44 46 47 46 48 52 54 53 55 56 55 55 57 60 63 61 66 72 77 78 78 78 79 81 76 67 65 61 59 58 60 63 62
28 30 31 32 30 32 35 39 43 46 48 49 49 47 51 51 50 52 55 57 57 58 62 65 66 70 70 72 74 77 77 78 79 77 66 63 62 61 58 59 60 62 59
28 30 30 31 33 36 40 44 47 48 49 50 50 50 52 54 53 55 57 57 57 60 63 61 74 73 71 71 74 77 77 78 76 68 64 62 62 60 58 59 60 61 56
29 29 31 34 37 40 44 46 47 48 49 50 50 52 54 56 56 55 54 53 56 64 71 70 72 71 71 73 76 77 78 77 69 65 63 60 61 59 58 58 59 58 54
28 31 33 37 40 42 44 45 46 48 49 50 52 54 56 56 55 53 55 59 60 63 68 70 71 72 72 75 76 78 78 75 69 63 60 59 60 58 59 58 58 56 51
31 34 37 39 41 42 44 46 48 50 51 52 54 55 55 54 53 56 60 63 66 67 68 69 71 72 74 75 76 76 74 68 64 60 60 60 59 59 58 59 57 54 48
34 36 38 39 42 44 46 48 49 51 52 54 54 54 53 54 57 60 63 66 66 66 67 69 71 74 77 78 76 74 71 64 61 59 59 60 60 59 59 59 55 52 45
37 39 41 43 45 47 49 51 52 52 53 54 54 54 54 56 59 63 65 66 66 67 69 72 74 76 78 78 74 70 65 62 60 59 59 59 60 62 61 57 53 50 42
42 43 44 46 48 50 52 53 54 55 56 57 55 53 56 61 64 66 67 67 68 71 74 76 80 81 81 75 66 66 64 62 61 61 61 62 63 62 60 56 50 47 41
45 46 47 49 51 53 55 55 56 57 57 55 54 57 62 65 67 68 68 69 72 76 79 82 84 84 80 70 65 68 67 65 64 64 63 64 64 59 55 51 46 43 40
49 50 51 52 55 56 56 58 58 57 54 55 59 62 67 70 70 70 70 73 76 79 82 82 81 78 75 71 69 69 68 67 69 69 67 63 58 52 51 46 42 41 38

GFSMW_500_spd_033.txt.gz
Wind_Speed
11 12 13 12 11 10 8 8 9 7 7 7 6 7 9 9 8 8 9 10 12 16 20 25 29 33 36 39 42 44 47 48 48 47 46 46 46 47 47 47 48 50 51
10 10 11 11 12 10 8 7 9 10 8 8 7 9 10 10 13 15 13 13 16 20 24 29 33 36 41 42 43 45 45 46 48 47 48 49 48 48 48 50 52 54 56
8 12 15 14 14 13 13 12 16 16 14 14 12 11 13 15 16 18 18 22 23 23 29 32 37 41 43 44 45 45 43 48 52 52 55 53 50 50 51 53 56 59 62
9 10 11 11 12 12 12 16 19 18 13 12 11 11 10 13 18 21 21 23 30 30 35 37 41 44 45 43 45 46 47 46 53 55 56 54 54 55 57 59 62 64 66
15 14 14 13 14 15 14 15 16 16 15 14 14 11 11 16 17 21 24 27 32 34 38 40 46 47 43 44 46 50 52 50 50 55 55 55 56 59 64 67 69 71 73
19 19 19 18 19 18 16 17 19 18 21 20 17 14 15 19 21 24 26 32 34 39 42 43 48 43 44 50 53 54 54 52 52 55 55 57 60 65 68 70 74 76 80
25 24 23 22 24 23 19 19 22 20 20 23 16 15 18 20 24 28 31 32 36 38 42 47 46 47 50 53 57 58 56 55 54 54 58 61 65 70 75 77 78 78 79
18 23 25 26 27 24 20 20 21 20 21 12 10 16 21 26 29 32 32 31 35 42 46 45 43 49 56 57 59 56 57 55 55 60 64 68 71 76 80 81 81 79 83
18 19 25 25 26 24 20 19 19 20 22 21 21 24 27 30 32 33 33 33 38 42 44 47 51 59 57 57 57 56 58 57 61 64 68 72 76 80 81 82 81 84 83
17 14 17 17 17 17 18 17 20 21 23 25 28 30 32 33 34 34 36 36 38 46 52 56 58 59 59 59 58 57 59 61 66 68 71 75 77 79 83 82 83 83 84
19 18 17 16 18 20 21 22 24 24 28 31 32 33 35 37 37 39 38 40 44 53 57 55 53 56 60 61 58 57 62 65 70 72 77 79 82 84 82 82 82 82 77
23 22 21 21 21 22 24 26 26 28 33 32 35 35 36 39 40 41 40 49 51 55 55 54 56 58 60 59 56 59 65 69 70 74 78 81 83 82 80 80 81 78 72
24 25 25 24 24 25 26 28 28 31 31 36 35 37 39 42 41 44 46 55 56 56 56 56 57 60 60 58 59 63 69 71 72 76 80 82 80 79 78 80 77 71 66
20 22 25 25 26 28 30 30 32 33 36 36 36 39 40 39 45 47 51 53 54 55 56 58 60 60 60 60 63 68 69 69 74 79 78 78 78 78 80 78 69 65 64
21 22 24 26 27 28 31 31 33 34 34 35 37 38 39 38 43 48 51 53 54 57 58 58 60 60 59 61 62 67 72 77 85 81 78 77 79 79 79 72 67 63 63
23 26 27 27 28 29 30 32 32 32 33 35 39 42 45 47 49 50 51 53 55 55 56 59 57 57 62 62 60 68 73 84 82 79 78 80 80 80 75 68 64 62 61
25 26 27 28 29 29 30 30 31 33 36 39 42 44 47 49 50 51 52 54 55 54 58 56 54 61 62 71 74 78 82 81 78 78 80 80 80 77 69 65 61 60 59
25 25 27 28 28 28 29 31 33 36 39 41 43 46 48 50 51 52 54 56 55 57 56 54 58 66 69 72 75 76 78 77 78 80 81 81 79 70 65 61 59 59 58
22 23 25 25 26 28 30 33 36 38 40 42 45 47 50 51 52 54 55 56 56 55 58 61 65 67 71 73 74 76 77 78 80 82 82 80 71 65 63 59 58 57 57
22 23 23 25 28 30 33 36 38 40 42 45 47 49 51 53 55 57 57 56 55 57 60 63 67 70 72 74 75 77 78 80 82 84 81 71 62 61 60 58 57 56 58
21 23 25 28 31 34 36 38 40 43 45 48 50 52 54 56 57 58 58 56 56 58 62 66 70 72 74 75 76 78 81 83 85 83 72 63 60 60 60 59 58 57 59
23 25 28 32 35 37 39 41 43 45 47 49 52 54 55 57 57 57 54 55 58 61 66 70 71 72 74 76 78 81 84 86 84 75 66 64 64 63 60 60 60 60 60
26 30 33 36 39 42 44 45 47 47 49 53 56 57 57 58 56 55 57 60 63 68 71 73 73 74 76 78 81 85 84 82 77 69 66 67 67 65 63 62 62 62 59
32 35 39 42 44 46 47 48 49 51 54 57 58 59 59 57 55 57 60 65 69 73 75 76 76 77 79 82 84 84 82 78 75 72 71 70 70 67 65 63 61 58 51
39 42 45 47 48 49 50 52 53 56 59 60 60 61 59 58 59 62 66 70 75 77 79 80 82 83 84 86 87 87 83 77 75 75 74 68 64 60 58 56 55 53 43
45 48 50 51 52 53 55 55 57 60 61 62 63 61 59 61 64 68 72 74 76 77 79 81 84 86 87 87 86 83 80 78 75 71 67 63 58 52 50 49 49 46 42